Simultaneous Nadir Overpasses (SNOs) Predictions

Prediction of SNOs between AQUA and METOP-B Satellite Orbit:

Table of predicted SNOs for the next 14.0 days since TLE Epoch: 3/14/2014
Index Date (AQUA) Time (AQUA) Lat,Lon (AQUA) SZA (AQUA ) Date (METOP-B) Time (METOP-B) Lat,Lon (METOP-B) SZA (METOP-B ) Distance(km) Time Diff (sec)
1 03/17/2014 06:58:33 -73.73,-110.06 104.88 03/17/2014 06:58:10 -73.74,-110.12 104.86 2.11 23
2 03/17/2014 07:48:02 73.80, 57.42 75.19 03/17/2014 07:48:48 73.83, 57.43 75.22 3.44 46
3 03/20/2014 02:32:51 -73.75, -43.69 105.97 03/20/2014 02:32:32 -73.73, -43.74 105.98 2.88 19
4 03/20/2014 03:22:20 73.83, 123.78 74.10 03/20/2014 03:23:10 73.81, 123.79 74.08 1.83 50
5 03/22/2014 21:17:32 73.21,-143.75 72.35 03/22/2014 21:16:24 73.15,-145.96 72.40 71.23 68
6 03/22/2014 22:07:08 -73.75, 22.75 107.09 03/22/2014 22:06:54 -73.76, 22.74 107.08 1.16 14
7 03/22/2014 22:56:37 73.83,-169.79 72.99 03/22/2014 22:57:32 73.83,-169.75 72.98 1.61 55
8 03/25/2014 16:51:52 73.44, -77.80 71.48 03/25/2014 16:50:42 73.37, -79.08 71.47 41.45 70
9 03/25/2014 17:41:24 -73.77, 89.14 108.18 03/25/2014 17:41:16 -73.78, 89.20 108.17 2.13 8
10 03/25/2014 18:30:53 73.86,-103.41 71.90 03/25/2014 18:31:54 73.85,-103.31 71.88 3.36 61
11 03/28/2014 12:26:10 73.70, -11.90 70.65 03/28/2014 12:24:57 73.67, -11.98 70.64 3.88 73
12 03/28/2014 13:15:37 -73.77, 155.60 109.30 03/28/2014 13:15:37 -73.79, 155.63 109.27 2.92 0




NCC Satellite Simultaneous Nadir Overpasses (SNOs) Prediction Service
